Location: Neuvy Saint Sepulchre
(46.5953°N, 1.8122°E)
Time: 15:42:30
(UTC+02:00)

ISS - Pass Details

Date: 11 May 2026
Orbit: 414 x 424 km, 51.6° (Epoch: 21 May)

Event Time Altitude Azimuth Distance (km) Brightness Sun altitude
Rises 00:04:17 0° 272° (W) 2,348 0.4 -21.4°
Reaches altitude 10° 00:06:29 10° 281° (W) 1,488 -0.5 -21.6°
Maximum altitude 00:09:36 37° 351° (N) 671 -2.2 -21.8°
Enters shadow 00:12:06 14° 55° (NE) 1,252 -1.3 -22.0°
